[Date Prev][Date Next][Thread Prev][Thread Next] - [Date Index][Thread Index][Author Index]
2 LIne ISS Keps 5-7
- Subject: [sarex] 2 LIne ISS Keps 5-7
- From: "Dr Dave Larsen [ PhD ]" <doc@xxxxxxxxxxx>
- Date: Mon, 7 May 2001 04:08:40 -0700
ISS
1 25544U 98067A 01127.13831019 .00043727 00000-0 54926-3 0 9449
2 25544 51.5715 295.6269 0017087 20.0820 145.3610 15.59079418140666
----
Via the sarex mailing list at AMSAT.ORG courtesy of AMSAT-NA.
To unsubscribe, send "unsubscribe sarex" to Majordomo@amsat.org
AMSAT Home